This is the latest recevied weather packets stored in our database for station/object K5OLV. If no packets are shown the sender has not sent any weather packets the latest 1 day(s).
| Time | Temp. | Humidity | Pressure | Rain* | Wind** | Luminosity | Snow |
|---|---|---|---|---|---|---|---|
| 1778034929 | 19.44° C | 65% | 1010.1 hPa | 0 mm | - | 0 W/m² | - |
| 1778034626 | 19.44° C | 65% | 1010 hPa | 0 mm | - | 0 W/m² | - |
| 1778034021 | 19.44° C | 66% | 1010.1 hPa | 0 mm | - | 0 W/m² | - |
| 1778033718 | 19.44° C | 65% | 1009.8 hPa | 0 mm | - | 0 W/m² | - |
| 1778033113 | 19.44° C | 66% | 1009.5 hPa | 0 mm | - | 0 W/m² | - |
| 1778031902 | 19.44° C | 66% | 1009.6 hPa | 0 mm | - | 0 W/m² | - |
| 1778031597 | 19.44° C | 66% | 1009.5 hPa | 0 mm | - | 0 W/m² | - |
| 1778031295 | 19.44° C | 66% | 1009.3 hPa | 0 mm | - | 0 W/m² | - |
| 1778030991 | 19.44° C | 66% | 1009.4 hPa | 0 mm | - | 0 W/m² | - |
| 1778030688 | 19.44° C | 67% | 1009.5 hPa | 0 mm | - | 0 W/m² | - |
| 1778030385 | 19.44° C | 66% | 1009.3 hPa | 0 mm | - | 0 W/m² | - |
| 1778029779 | 19.44° C | 67% | 1009.4 hPa | 0 mm | - | 0 W/m² | - |
| 1778028872 | 19.44° C | 67% | 1009.3 hPa | 0 mm | - | 0 W/m² | - |
| 1778028265 | 19.44° C | 67% | 1009.4 hPa | 0 mm | - | 0 W/m² | - |
| 1778027354 | 19.44° C | 65% | 1009.3 hPa | 0 mm | - | 0 W/m² | - |
| 1778027050 | 20° C | 64% | 1009.4 hPa | 0 mm | - | 1 W/m² | - |
| 1778026140 | 20° C | 62% | 1009.4 hPa | 0 mm | - | 6 W/m² | - |
| 1778025838 | 20° C | 62% | 1009.4 hPa | 0 mm | - | 10 W/m² | - |
| 1778024323 | 20° C | 60% | 1009.4 hPa | 0 mm | - | 18 W/m² | - |
| 1778023416 | 20° C | 59% | 1009.5 hPa | 0 mm | - | 31 W/m² | - |
| 1778022508 | 20° C | 57% | 1009.7 hPa | 0 mm | - | 43 W/m² | - |
| 1778022205 | 20° C | 56% | 1010 hPa | 0 mm | - | 58 W/m² | - |
| 1778021599 | 20.56° C | 56% | 1009.7 hPa | 0 mm | - | 56 W/m² | - |
| 1778020992 | 21.11° C | 55% | 1009.7 hPa | 0 mm | - | 91 W/m² | - |
| 1778020689 | 20.56° C | 55% | 1009.8 hPa | 0 mm | - | 104 W/m² | - |
* Rain latest hour (hover to see other rain measurements)
** Current wind speed in m/s (hover to see current wind gust speed)